Miscellaneous Local Product
Issued by NWS Hastings, NE

Home | Current Version | Previous Version | Text Only | Print | Product List | Glossary Off
Versions: 1 2 3 4 5 6 7 8 9 10 11 12 13 14 15 16 17 18 19 20 21 22 23 24 25 26 27 28 29 30 31 32 33 34 35 36 37 38 39 40 41 42 43 44 45 46 47 48 49 50

000
AXUS43 KGID 290202
MISGRI

GID CWA HOURLY WEATHER ROUNDUP
NATIONAL WEATHER SERVICE HASTINGS NE
800 PM CST WED JAN 28 2015

NOTE: "FAIR" INDICATES FEW OR NO CLOUDS BELOW 12,000 FEET WITH NO
SIGNIFICANT WEATHER AND/OR OBSTRUCTIONS TO VISIBILITY.

...SOUTH CENTRAL NEBRASKA...

CITY           SKY/WX    TMP DP  RH WIND       PRES   REMARKS
GRAND ISLAND   PTCLDY    54  30  40 NW17      29.89R
HASTINGS       MOCLDY    54  28  36 NW21      29.89R
KEARNEY        CLOUDY    55  28  35 NW23G29   29.92R
ORD            MOCLDY    54  30  40 NW25G41   29.91R
YORK           MOCLDY    54  32  43 NW22G28   29.83R
AURORA         PTCLDY    55  30  37 NW29G38   29.87R
LEXINGTON      PTCLDY    53  32  44 NW20      29.96R
HOLDREGE       PTCLDY    52  26  36 NW13      29.93R
HEBRON         CLEAR     56  30  37 NW13      29.82R

...NEBRASKA PANHANDLE...

CITY           SKY/WX    TMP DP  RH WIND       PRES   REMARKS
CHADRON        MOCLDY    44  30  57 NW14      30.16R
ALLIANCE       PTCLDY    38  30  73 NW9       30.12R WCI  31
SCOTTSBLUFF    CLEAR     37  33  85 NW9       30.17R WCI  30
SIDNEY         CLEAR     38  34  85 W13       30.16R WCI  30

...WESTERN AND NORTH CENTRAL NEBRASKA...

CITY           SKY/WX    TMP DP  RH WIND       PRES   REMARKS
VALENTINE      MOCLDY    45  33  63 N26G36    30.04R
AINSWORTH      MOCLDY    47  31  54 NW23G32   29.99R
ONEILL         CLOUDY    51  35  53 NW23G36   29.91R
BROKEN BOW     CLOUDY    55  30  38 N28G37    29.96R
IMPERIAL       CLEAR     47  36  65 NW16      30.09R
NORTH PLATTE   PTCLDY    48  33  56 NW18G26   30.02R
MCCOOK         PTCLDY    50  29  44 NW14      30.03R

...EASTERN NEBRASKA...

CITY           SKY/WX    TMP DP  RH WIND       PRES   REMARKS
NORFOLK        CLEAR     50  36  58 NW26G33   29.83R
SO SIOUX CITY  PTCLDY    43  37  79 NW18      29.77R
TEKAMAH        CLEAR     47  37  68 NW22      29.76R
COLUMBUS       CLEAR     48  34  57 NW18G24   29.84R
ALBION         PTCLDY    53  32  43 N24G38    29.87R
OMAHA EPPLEY   CLEAR     48  36  63 NW15      29.75R
OFFUTT AFB     CLEAR     42  33  71 NW12      29.74R
MILLARD        CLEAR     46  35  66 NW6       29.75R
LINCOLN        CLEAR     54  36  50 NW15      29.81R
NEBRASKA CITY  CLEAR     50  30  46 W10       29.72R
BEATRICE       CLEAR     52  34  49 NW10      29.77R
FALLS CITY     MOCLDY    51  34  52 W10       29.72R

...NORTHERN KANSAS...

CITY           SKY/WX    TMP DP  RH WIND       PRES   REMARKS
GOODLAND       CLEAR     46  34  62 NW16      30.12R
HILL CITY      CLEAR     56  28  34 NW18      29.99R
NORTON         CLEAR     54  23  30 NW21G26   29.98R
PHILLIPSBURG   CLEAR     59  27  29 NW15G22   29.96R
SMITH CENTER   CLEAR     55  27  33 NW18      29.93R
BELOIT         CLEAR     57  30  35 NW15G23   29.87R
HAYS           CLEAR     59  30  33 NW20G25   29.96R
RUSSELL        FAIR      60  33  36 NW22      29.92R
CONCORDIA      CLEAR     59  33  37 NW15      29.84R
SALINA         CLEAR     60  32  34 W15       29.84R
TOPEKA         CLOUDY    60  35  39 SW3       29.76R



USA.gov is the U.S. government's official web portal to all federal, state and local government web resources and services.